Location: Tel Aviv
(32.0670°N, 34.7670°E)
Time: 08:06:12
(UTC+03:00)

Vanguard 2 Rocket - Visible Passes

Search period start: 26 June 2022 00:00
Search period end: 06 July 2022 00:00
Orbit: 553 x 3323 km, 32.9° (Epoch: 25 June)

Date Brightness Start Highest point End Pass type
(mag) Time Alt. Az. Time Alt. Az. Time Alt. Az.
26 Jun 7.7 04:02:09 23° SSW 04:04:42 36° SE 04:11:43 10° E visible
27 Jun 8.2 03:05:32 19° SE 03:05:32 19° SE 03:09:29 10° E visible
28 Jun 7.1 04:14:39 24° SW 04:17:35 54° SSE 04:25:10 10° E visible
29 Jun 7.4 03:18:00 32° SSE 03:18:00 32° SSE 03:23:26 10° E visible
30 Jun 8.9 02:21:21 11° ESE 02:21:21 11° ESE 02:21:43 10° ESE visible
30 Jun 6.8 04:27:07 19° WSW 04:30:42 75° SSE 04:38:28 10° E visible
01 Jul 6.5 03:30:28 49° S 03:30:57 52° SSE 03:36:56 10° E visible
02 Jul 8.2 02:33:49 19° ESE 02:33:49 19° ESE 02:35:46 10° E visible
02 Jul 6.8 04:39:35 12° W 04:43:59 89° N 04:51:45 10° E visible
03 Jul 6.2 03:42:56 49° WSW 03:44:07 75° SSE 03:50:15 10° E visible
04 Jul 7.5 02:46:17 31° E 02:46:17 31° E 02:49:17 10° E visible
04 Jul 6.9 04:52:37 10° W 04:57:20 82° N 05:05:04 10° E visible
05 Jul 6.3 03:55:25 33° W 03:57:25 87° N 04:03:33 10° E visible
